DW8595 Weather Reports


Display with metric or nautical units.
time (UTC)temp
F
wind
direction
speed
MPH
gust
MPH
rain 1hr
in
rain 24hr
in
rain mn
in
humidity
%
barometer
mb
20191212002335 23 243 0.0 0.0 0.00 0.14 0.07 95 1024.5
20191212001320 23 243 0.0 0.0 0.00 0.14 0.07 95 1024.6
20191212000341 23 243 0.0 1.0 0.00 0.14 0.07 96 1024.7
20191211235320 23 158 0.0 0.0 0.00 0.14 0.07 95 1024.6
20191211234321 23 158 0.0 0.0 0.00 0.16 0.07 95 1024.4
20191211233326 23 158 0.0 0.0 0.00 0.16 0.07 95 1024.3
20191211232327 23 158 0.0 0.0 0.00 0.16 0.07 94 1024.1
20191211231328 23 158 0.0 0.0 0.00 0.16 0.07 94 1024.0
20191211230333 23 158 0.0 0.0 0.00 0.16 0.07 94 1024.0
20191211225334 24 158 0.0 0.0 0.00 0.16 0.07 93 1023.9
20191211224335 24 157 0.0 0.0 0.00 0.18 0.07 93 1023.8
20191211223340 25 158 0.0 0.0 0.00 0.18 0.07 92 1023.7
20191211222340 25 158 0.0 0.0 0.00 0.18 0.07 91 1023.6
20191211221320 25 158 0.0 0.0 0.00 0.18 0.07 91 1023.5
20191211220325 26 158 0.0 0.0 0.00 0.18 0.07 89 1023.3
20191211215326 26 158 0.0 0.0 0.00 0.18 0.07 88 1023.3
20191211214327 27 158 0.0 0.0 0.00 0.18 0.07 87 1023.3
20191211213332 28 158 0.0 0.0 0.00 0.18 0.07 85 1023.1
20191211212333 28 158 0.0 0.0 0.00 0.18 0.07 85 1023.2
20191211211334 29 169 0.0 0.0 0.00 0.18 0.07 83 1022.9
20191211210335 29 160 0.0 0.0 0.00 0.18 0.07 81 1022.6
20191211205340 30 210 0.0 1.0 0.00 0.18 0.07 80 1022.5
20191211204320 31 127 0.0 1.0 0.01 0.19 0.07 79 1022.3
20191211203321 31 160 0.0 0.0 0.01 0.19 0.07 77 1022.0
20191211202326 31 256 0.0 2.0 0.01 0.19 0.07 75 1021.9
20191211201327 32 186 0.0 1.0 0.01 0.19 0.07 76 1021.9
20191211200328 32 162 0.0 3.0 0.02 0.19 0.07 73 1021.6
20191211195333 33 188 0.0 1.0 0.02 0.19 0.07 73 1021.7
20191211194334 33 207 0.0 4.0 0.01 0.18 0.06 72 1021.8
20191211193335 33 172 0.0 2.0 0.01 0.18 0.06 72 1022.1
20191211192340 33 156 0.0 3.0 0.02 0.18 0.06 72 1021.9
20191211191340 33 123 2.0 4.0 0.02 0.18 0.06 71 1021.7
20191211190320 34 170 0.0 3.0 0.01 0.17 0.05 73 1021.7
20191211185325 34 269 0.0 2.0 0.01 0.17 0.05 75 1021.9
20191211184326 32 243 0.0 0.0 0.01 0.17 0.05 79 1022.0
20191211183327 32 165 0.0 1.0 0.01 0.17 0.05 76 1022.1
20191211182332 33 124 0.0 2.0 0.00 0.16 0.04 75 1022.3
20191211181333 33 219 0.0 5.0 0.00 0.16 0.04 74 1022.2
20191211180334 33 290 0.0 1.0 0.00 0.16 0.04 76 1022.2
20191211175335 32 283 0.0 2.0 0.00 0.16 0.04 76 1022.3
20191211174320 33 152 0.0 1.0 0.00 0.16 0.04 76 1022.3
20191211173321 32 276 0.0 3.0 0.00 0.16 0.04 77 1022.4
20191211172322 32 271 0.0 1.0 0.00 0.16 0.04 80 1022.7
20191211171327 32 303 0.0 3.0 0.00 0.16 0.04 80 1022.8
20191211170328 31 283 0.0 1.0 0.00 0.16 0.04 79 1022.9
20191211165327 31 280 0.0 2.0 0.00 0.16 0.04 82 1022.9
20191211164333 31 298 0.0 1.0 0.00 0.16 0.04 81 1023.2
20191211163333 31 262 0.0 0.0 0.00 0.16 0.04 84 1023.2
20191211162334 30 266 0.0 1.0 0.00 0.16 0.04 84 1023.4
20191211161340 30 300 0.0 0.0 0.00 0.16 0.04 87 1023.4
20191211160340 29 330 0.0 2.0 0.00 0.16 0.04 88 1023.4
20191211155340 29 245 0.0 0.0 0.00 0.16 0.04 89 1023.7
20191211154324 29 246 0.0 0.0 0.00 0.16 0.04 88 1023.9
20191211153325 29 246 0.0 1.0 0.00 0.16 0.04 88 1024.0
20191211152326 29 243 0.0 0.0 0.00 0.16 0.04 87 1024.2
20191211151331 29 266 0.0 1.0 0.00 0.16 0.04 90 1024.4
20191211150332 29 281 0.0 1.0 0.00 0.16 0.04 91 1024.0
20191211145333 29 305 0.0 1.0 0.00 0.16 0.04 93 1024.2
20191211144334 29 260 0.0 0.0 0.00 0.16 0.04 95 1024.1
20191211143339 29 301 0.0 0.0 0.00 0.16 0.04 96 1023.8
20191211142320 29 309 0.0 0.0 0.00 0.16 0.04 96 1023.7
20191211141321 29 309 0.0 0.0 0.00 0.16 0.04 96 1023.5
20191211140326 29 309 0.0 0.0 0.00 0.16 0.04 96 1023.7
20191211135327 29 309 0.0 0.0 0.00 0.16 0.04 96 1023.8
20191211134328 29 318 0.0 0.0 0.00 0.16 0.04 96 1023.9
20191211133333 29 316 0.0 0.0 0.00 0.16 0.04 96 1023.5
20191211132334 28 122 0.0 0.0 0.00 0.16 0.04 96 1023.3
20191211131335 28 123 0.0 1.0 0.00 0.16 0.04 96 1023.2
20191211130320 28 278 0.0 0.0 0.00 0.16 0.04 96 1023.2
20191211125321 28 141 0.0 0.0 0.00 0.16 0.04 96 1022.9
20191211124322 28 311 0.0 0.0 0.00 0.16 0.04 96 1022.3
20191211123328 28 310 0.0 0.0 0.00 0.16 0.04 95 1022.5
20191211122325 28 310 0.0 0.0 0.00 0.16 0.04 95 1022.2
20191211121327 28 311 0.0 0.0 0.00 0.16 0.04 95 1022.4
20191211120331 28 311 0.0 0.0 0.00 0.16 0.04 95 1022.1
20191211115332 28 311 0.0 0.0 0.00 0.16 0.04 95 1022.0
20191211114333 28 311 0.0 1.0 0.00 0.16 0.04 95 1022.0
20191211113334 28 283 0.0 1.0 0.00 0.16 0.04 95 1021.6
20191211112338 28 309 0.0 1.0 0.00 0.16 0.04 94 1021.9
20191211111339 29 288 0.0 1.0 0.00 0.16 0.04 94 1022.1
20191211110320 29 334 0.0 2.0 0.00 0.16 0.04 94 1022.0
20191211105325 29 326 0.0 1.0 0.00 0.16 0.04 94 1021.8
20191211104326 30 126 0.0 0.0 0.00 0.16 0.04 93 1021.3
20191211103327 30 127 0.0 1.0 0.00 0.16 0.04 92 1021.3
20191211102332 30 158 0.0 1.0 0.00 0.16 0.04 91 1021.5
20191211101333 30 294 0.0 4.0 0.00 0.16 0.04 92 1021.3
20191211100334 30 289 2.0 7.0 0.00 0.16 0.04 92 1021.9
20191211095338 30 127 0.0 1.0 0.00 0.16 0.04 93 1021.3
20191211094338 30 304 0.0 1.0 0.00 0.16 0.04 94 1020.5
20191211093339 30 273 0.0 1.0 0.00 0.16 0.04 94 1020.9
20191211092324 29 148 0.0 2.0 0.00 0.16 0.04 95 1021.5
20191211091325 29 311 1.0 8.0 0.00 0.16 0.04 95 1020.3
20191211090326 30 341 1.0 6.0 0.00 0.16 0.04 96 1020.4
20191211085331 30 266 0.0 2.0 0.00 0.16 0.04 97 1020.8
20191211084332 31 160 0.0 1.0 0.00 0.16 0.04 97 1020.3
20191211083333 31 297 0.0 1.0 0.00 0.16 0.04 97 1020.0
20191211082334 31 286 0.0 2.0 0.00 0.16 0.04 97 1020.8
20191211081338 31 156 0.0 1.0 0.00 0.16 0.04 97 1020.6
20191211080339 31 135 0.0 2.0 0.00 0.16 0.04 97 1019.8
20191211075338 31 259 0.0 2.0 0.00 0.16 0.04 97 1019.9
20191211074323 32 312 0.0 2.0 0.00 0.16 0.04 96 1019.6
20191211073344 32 232 0.0 4.0 0.00 0.16 0.04 96 1019.5
20191211072338 32 350 0.0 2.0 0.00 0.16 0.04 95 1019.1
20191211071323 32 295 1.0 8.0 0.00 0.16 0.04 95 1019.1
20191211070324 33 297 1.0 5.0 0.01 0.16 0.04 95 1019.0
20191211065325 33 309 2.0 7.0 0.01 0.16 0.04 96 1018.7
20191211064330 33 293 0.0 3.0 0.01 0.16 0.04 96 1018.4
20191211063331 33 282 0.0 4.0 0.01 0.16 0.04 96 1017.5
20191211062332 33 332 1.0 7.0 0.02 0.16 0.04 96 1018.2
20191211061337 33 335 4.0 15.0 0.02 0.16 0.04 96 1018.3
20191211060338 34 278 2.0 6.0 0.02 0.15 0.03 96 1018.1
20191211055339 34 301 3.0 7.0 0.03 0.15 0.03 96 1017.9
20191211054324 34 282 1.0 3.0 0.03 0.16 0.03 96 1017.7
20191211053325 35 308 2.0 6.0 0.03 0.16 0.03 95 1017.6
20191211052326 35 276 3.0 7.0 0.02 0.15 0.02 95 1017.2
20191211051327 36 281 3.0 9.0 0.02 0.15 0.02 95 1017.3
20191211050332 36 333 2.0 5.0 0.02 0.14 0.01 95 1017.3
20191211045333 36 308 2.0 10.0 0.01 0.13 0.00 95 1017.0
20191211044334 36 232 1.0 5.0 0.01 0.17 0.13 96 1016.7
20191211043338 37 290 1.0 6.0 0.01 0.17 0.13 95 1016.6
20191211042339 37 166 2.0 6.0 0.02 0.17 0.13 95 1016.4
20191211041319 37 298 3.0 7.0 0.02 0.17 0.13 94 1016.4
20191211040325 38 301 2.0 8.0 0.01 0.16 0.12 94 1016.5
20191211035326 38 293 4.0 7.0 0.01 0.16 0.12 93 1016.0
20191211034327 38 28 2.0 6.0 0.02 0.19 0.12 94 1016.0
20191211033332 39 321 2.0 8.0 0.02 0.19 0.12 95 1016.0
20191211032333 39 308 0.0 3.0 0.01 0.18 0.11 95 1016.1
20191211031334 39 276 1.0 4.0 0.02 0.18 0.11 94 1015.7
20191211030338 39 318 1.0 6.0 0.02 0.18 0.11 94 1015.1
20191211025338 39 252 2.0 4.0 0.02 0.18 0.11 93 1015.3
20191211024339 39 328 1.0 6.0 0.01 0.17 0.10 93 1014.7
20191211022331 40 294 2.0 4.0 0.01 0.17 0.10 92 1014.5
20191211021332 40 278 2.0 5.0 0.00 0.16 0.09 92 1013.8
20191211020333 40 312 1.0 3.0 0.00 0.16 0.09 91 1013.5
20191211015337 40 300 1.0 6.0 0.00 0.16 0.09 91 1013.2
20191211014338 40 278 1.0 4.0 0.01 0.17 0.09 92 1013.2
20191211013320 41 302 1.0 5.0 0.01 0.17 0.09 92 1012.9
20191211012325 41 301 2.0 5.0 0.02 0.17 0.09 92 1013.2
20191211011325 41 283 2.0 6.0 0.02 0.17 0.09 92 1013.6
20191211010327 41 264 2.0 9.0 0.03 0.17 0.09 92 1013.7
20191211005328 42 326 4.0 9.0 0.03 0.17 0.09 91 1013.5
20191211004333 43 301 3.0 10.0 0.02 0.17 0.08 91 1013.0
20191211003334 43 300 3.0 9.0 0.03 0.17 0.08 90 1012.7